Weather History for El Dorado, AR

Change the Weather History Date:

Wednesday, January 1, 2014

  Actual Average Record
Temperature  
Mean Temperature 43 °F 44 °F  
Max Temperature 60 °F 54 °F 79 °F (1952)
Min Temperature 25 °F 33 °F 10 °F (1964)
Degree Days  
Heating Degree Days 22 21  
Month to date heating degree days 22 21  
Since 1 July heating degree days 1246 1108  
Cooling Degree Days 0 0  
Month to date cooling degree days 0 0  
Year to date cooling degree days 0 0  
Moisture  
Dew Point 35 °F    
Average Humidity 71    
Maximum Humidity 96    
Minimum Humidity 46    
Precipitation  
Precipitation 0.00 in 0.13 in 2.95 in (1972)
Month to date precipitation 0.00 0.13  
Year to date precipitation 0.00 0.13  
Snow  
Snow 0.00 in - - ()
Month to date snowfall 0.0  
Since 1 July snowfall T  
Snow Depth 0.00 in    
Sea Level Pressure  
Sea Level Pressure 30.12 in    
Wind  
Wind Speed 5 mph (South)    
Max Wind Speed 13 mph    
Max Gust Speed 18 mph    
Visibility 9 miles    
Events      
T = Trace of Precipitation, MM = Missing Value Source: NWS Daily Summary

Daily Weather History Graph

Daily Weather History Graph

Search for Another Location

Airport:

Trip Planner

Search our weather history database for the weather conditions in past years. The results will help you decide how hot, cold, wet, or windy it might be!

Date:

Astronomy

Jan. 01, 2014 Rise Set
Actual Time 7:14 AM CST 5:15 PM CST
Civil Twilight 6:47 AM CST 5:42 PM CST
Nautical Twilight 6:16 AM CST 6:13 PM CST
Astronomical Twilight 5:46 AM CST 6:43 PM CST
Moon 7:08 AM CST (1/1) 5:56 PM CST (1/1)
Length of Visible Light 10h 55m
Length of Day
10h 00m
New Moon, 0% of the Moon is Illuminated
Jan 1
New Moon
Jan 7
First Quarter
Jan 15
Full
Jan 23
Last Quarter
Jan 30
New

Hourly Weather History & Observations

Time (CST) Temp. Windchill Dew Point Humidity Pressure Visibility Wind Dir Wind Speed Gust Speed Precip Events Conditions
12:53 AM 27.0 °F - 25.0 °F 92% 30.28 in 10.0 mi Calm Calm - N/A   Clear
1:53 AM 28.0 °F - 26.1 °F 92% 30.28 in 8.0 mi Calm Calm - N/A   Clear
2:53 AM 27.0 °F - 25.0 °F 92% 30.25 in 9.0 mi Calm Calm - N/A   Clear
3:53 AM 26.1 °F - 24.1 °F 92% 30.25 in 9.0 mi Calm Calm - N/A   Clear
4:53 AM 25.0 °F - 23.0 °F 92% 30.23 in 9.0 mi Calm Calm - N/A   Clear
5:53 AM 25.0 °F - 23.0 °F 92% 30.23 in 8.0 mi Calm Calm - N/A   Clear
6:53 AM 27.0 °F - 25.0 °F 92% 30.22 in 7.0 mi Calm Calm - N/A   Clear
7:53 AM 28.0 °F - 26.1 °F 92% 30.23 in 6.0 mi Calm Calm - N/A   Clear
8:53 AM 34.0 °F 29.8 °F 32.0 °F 92% 30.23 in 8.0 mi SSE 4.6 mph - N/A   Clear
9:53 AM 41.0 °F 38.0 °F 35.1 °F 79% 30.21 in 10.0 mi SSE 4.6 mph - N/A   Clear
10:53 AM 48.0 °F - 36.0 °F 63% 30.19 in 10.0 mi South 9.2 mph - N/A   Clear
11:53 AM 53.1 °F - 37.0 °F 55% 30.14 in 10.0 mi South 9.2 mph - N/A   Clear
12:53 PM 55.0 °F - 37.0 °F 51% 30.09 in 10.0 mi SSE 8.1 mph - N/A   Scattered Clouds
1:53 PM 57.9 °F - 39.0 °F 49% 30.05 in 10.0 mi SSE 5.8 mph - N/A   Scattered Clouds
2:53 PM 60.1 °F - 39.9 °F 47% 30.02 in 10.0 mi South 8.1 mph - N/A   Scattered Clouds
3:53 PM 59.0 °F - 39.9 °F 49% 30.01 in 10.0 mi SSE 10.4 mph - N/A   Overcast
4:53 PM 57.9 °F - 41.0 °F 53% 30.01 in 10.0 mi SSE 6.9 mph - N/A   Overcast
5:53 PM 55.9 °F - 41.0 °F 57% 29.98 in 10.0 mi SSE 9.2 mph - N/A   Mostly Cloudy
6:53 PM 55.9 °F - 42.1 °F 60% 29.99 in 10.0 mi South 8.1 mph - N/A   Overcast
7:53 PM 54.0 °F - 44.1 °F 69% 29.99 in 10.0 mi South 8.1 mph - N/A   Mostly Cloudy
8:53 PM 54.0 °F - 45.0 °F 72% 30.00 in 10.0 mi South 9.2 mph - N/A   Overcast
9:53 PM 53.1 °F - 46.0 °F 77% 29.99 in 10.0 mi South 9.2 mph - N/A   Scattered Clouds
10:53 PM 52.0 °F - 48.0 °F 86% 29.97 in 10.0 mi South 9.2 mph - N/A   Clear
11:53 PM 52.0 °F - 48.9 °F 89% 29.97 in 10.0 mi SSW 10.4 mph - N/A   Partly Cloudy